San Diego, CA

9:35 AM PDT on August 20, 2017 (GMT -0700)
San Diego International-Lindbergh

Weather History for KSAN - March, 2013

Change the Weather History Date:

Thursday, March 14, 2013

  Actual Average Record
Temperature  
Mean Temperature 58 °F 59 °F  
Max Temperature 66 °F 66 °F 90 °F (2015)
Min Temperature 50 °F 53 °F 38 °F (1898)
Degree Days  
Heating Degree Days 7 6  
Month to date heating degree days 78 87  
Since 1 July heating degree days 911 945  
Cooling Degree Days 0 0  
Month to date cooling degree days 3 0  
Year to date cooling degree days 4 5  
Growing Degree Days 9 (Base 50)    
Moisture  
Dew Point 51 °F    
Average Humidity 80    
Maximum Humidity 96    
Minimum Humidity 63    
Precipitation  
Precipitation 0.00 in 0.06 in 1.39 in (1942)
Month to date precipitation 1.22 0.98  
Year to date precipitation 3.06 5.23  
Since 1 July precipitation 6.23  
Snow  
Snow 0.00 in - - ()
Month to date snowfall 0.0  
Year to date snowfall 0.0  
Snow Depth 0.00 in    
Sea Level Pressure  
Sea Level Pressure 30.09 in    
Wind  
Wind Speed 5 mph (NW)    
Max Wind Speed 15 mph    
Max Gust Speed 18 mph    
Visibility 3 miles    
Events Fog    
T = Trace of Precipitation, MM = Missing Value Source: NWS Daily Summary

Daily Weather History Graph

Daily Weather History Graph

Search for Another Location

Airport or City:

Trip Planner

Search our weather history database for the weather conditions in past years. The results will help you decide how hot, cold, wet, or windy it might be!

Date:

Astronomy

Mar. 14, 2013 Rise Set
Actual Time 6:59 AM PDT 6:56 PM PDT
Civil Twilight 6:35 AM PDT 7:20 PM PDT
Nautical Twilight 6:06 AM PDT 7:49 PM PDT
Astronomical Twilight 5:38 AM PDT 8:18 PM PDT
Moon 8:28 AM PDT (3/14) 10:03 PM PDT (3/14)
Length of Visible Light 12h 45m
Length of Day
11h 56m
Waxing Crescent, 9% of the Moon is Illuminated
Mar 14
Waxing Crescent
Mar 19
First Quarter
Mar 27
Full
Apr 2
Last Quarter
Apr 10
New

Hourly Weather History & Observations

Time (PDT) Temp. Dew Point Humidity Pressure Visibility Wind Dir Wind Speed Gust Speed Precip Events Conditions
12:03 AM 55.4 °F 51.8 °F 88% 30.10 in 0.2 mi WNW 5.8 mph - N/A Fog Fog
12:23 AM 53.6 °F 51.8 °F 94% 30.11 in 0.2 mi NW 3.5 mph - N/A Fog Fog
12:36 AM 53.6 °F 51.8 °F 94% 30.11 in 0.2 mi WNW 5.8 mph - N/A Fog Fog
12:51 AM 54.0 °F 52.0 °F 93% 30.11 in 0.2 mi NNW 6.9 mph - N/A Fog Fog
1:51 AM 54.0 °F 52.0 °F 93% 30.11 in 0.5 mi North 4.6 mph - N/A Fog Fog
2:20 AM 53.6 °F 51.8 °F 94% 30.10 in 1.0 mi Calm Calm - N/A   Overcast
2:51 AM 54.0 °F 51.1 °F 90% 30.09 in 1.5 mi NNW 3.5 mph - N/A   Overcast
2:53 AM - - N/A% 30.09 in 3.0 mi NW 4.6 mph - N/A   Overcast
2:56 AM 53.6 °F 51.8 °F 94% 30.09 in 1.5 mi NNW 3.5 mph - N/A   Overcast
3:19 AM 53.6 °F 51.8 °F 94% 30.08 in 0.8 mi NNW 5.8 mph - N/A   Overcast
3:51 AM 54.0 °F 50.0 °F 86% 30.08 in 0.5 mi North 5.8 mph - N/A Fog Fog
4:37 AM 53.6 °F 50.0 °F 88% 30.08 in 0.5 mi North 4.6 mph - N/A Fog Fog
4:51 AM 54.0 °F 50.0 °F 86% 30.15 in 0.5 mi NW 3.5 mph - N/A Fog Fog
5:51 AM 52.0 °F 50.0 °F 93% 30.14 in 0.8 mi Calm Calm - N/A   Overcast
6:11 AM 51.8 °F 50.0 °F 94% 30.07 in 1.0 mi Calm Calm - N/A   Overcast
6:34 AM 53.6 °F 50.0 °F 88% 30.07 in 2.5 mi Calm Calm - N/A   Mostly Cloudy
6:48 AM 53.6 °F 48.2 °F 82% 30.07 in 2.5 mi East 4.6 mph - N/A   Scattered Clouds
6:51 AM 53.1 °F 48.9 °F 86% 30.14 in 2.5 mi East 3.5 mph - N/A   Scattered Clouds
7:32 AM 53.6 °F 48.2 °F 82% 30.07 in 3.0 mi Calm Calm - N/A   Partly Cloudy
7:51 AM 54.0 °F 50.0 °F 86% 30.14 in 3.0 mi Calm Calm - N/A   Partly Cloudy
8:22 AM 53.6 °F 50.0 °F 88% 30.09 in 1.8 mi NNW 5.8 mph - N/A   Mostly Cloudy
8:48 AM 53.6 °F 50.0 °F 88% 30.10 in 1.0 mi NNW 6.9 mph - N/A   Mostly Cloudy
8:51 AM 54.0 °F 50.0 °F 86% 30.17 in 1.0 mi NNW 9.2 mph - N/A   Overcast
9:00 AM 53.6 °F 50.0 °F 88% 30.10 in 1.5 mi NNW 9.2 mph - N/A   Overcast
9:13 AM 53.6 °F 50.0 °F 88% 30.10 in 1.8 mi NW 6.9 mph - N/A   Mostly Cloudy
9:24 AM 55.4 °F 51.8 °F 88% 30.10 in 3.0 mi NW 6.9 mph - N/A   Mostly Cloudy
9:39 AM 55.4 °F 51.8 °F 88% 30.10 in 4.0 mi NW 6.9 mph - N/A   Scattered Clouds
9:51 AM 57.9 °F 51.1 °F 78% 30.10 in 5.0 mi NNW 6.9 mph - N/A   Partly Cloudy
10:51 AM 64.9 °F 52.0 °F 63% 30.09 in 9.0 mi WNW 8.1 mph - N/A   Partly Cloudy
11:51 AM 63.0 °F 51.1 °F 65% 30.08 in 7.0 mi NW 8.1 mph - N/A   Partly Cloudy
12:51 PM 64.9 °F 51.1 °F 61% 30.06 in 10.0 mi NW 6.9 mph - N/A   Partly Cloudy
1:51 PM 62.1 °F 51.1 °F 67% 30.05 in 10.0 mi WNW 8.1 mph - N/A   Partly Cloudy
2:51 PM 61.0 °F 52.0 °F 72% 30.05 in 10.0 mi WNW 11.5 mph 18.4 mph N/A   Partly Cloudy
3:51 PM 62.1 °F 52.0 °F 70% 30.05 in 7.0 mi WNW 10.4 mph - N/A   Scattered Clouds
4:51 PM 61.0 °F 52.0 °F 72% 30.05 in 8.0 mi WNW 6.9 mph - N/A   Scattered Clouds
5:51 PM 60.1 °F 52.0 °F 75% 30.06 in 7.0 mi WNW 4.6 mph - N/A   Scattered Clouds
6:51 PM 57.0 °F 51.1 °F 81% 30.05 in 5.0 mi NW 5.8 mph - N/A   Haze
7:51 PM 57.0 °F 52.0 °F 83% 30.06 in 6.0 mi WNW 6.9 mph - N/A   Haze
8:00 PM - - N/A% - - North - - N/A   Sand
8:43 PM 55.4 °F 51.8 °F 88% 30.07 in 5.0 mi West 4.6 mph - N/A   Mostly Cloudy
8:51 PM 55.9 °F 52.0 °F 87% 30.07 in 4.0 mi West 4.6 mph - N/A   Mostly Cloudy
9:02 PM 55.4 °F 51.8 °F 88% 30.07 in 4.0 mi West 4.6 mph - N/A   Overcast
9:51 PM 55.9 °F 52.0 °F 87% 30.07 in 4.0 mi Calm Calm - N/A   Overcast
10:51 PM 55.9 °F 52.0 °F 87% 30.08 in 4.0 mi Calm Calm - N/A   Overcast
11:37 PM 55.4 °F 51.8 °F 88% 30.07 in 2.0 mi Calm Calm - N/A   Overcast
11:51 PM 55.0 °F 52.0 °F 89% 30.07 in 1.5 mi Calm Calm - N/A   Overcast